Keesler Air Force Base
KBIX : now visible

Airfield :











YOU CAN JOIN US ON...

 
LOGIN :

Register | Disclaimer

   EN    FR    IT 

 









Legend :    VFR   Marginal VFR   IFR   Intensive IFR   Very Intensive IFR
Visi :
Ceiling :
>= 8 km
>= 3000ft
5 to 8 km
1000 to 3000 ft
1500m to 5 km
500 to 1000 ft
800 to 1500m
200 to 500 ft
< 800m
< 200 ft
Symbols :   Thunderstorms  Fog  Heavy snow  Heavy precipitations  Wind > 20 kt






- Airport Elevation : 33 ft


KBIX - Keesler Air Force Base

CURRENT METAR :
  • 251856Z AUTO 32004KT 10SM OVC019 23/17 A2994 RMK AO2 CIG 018 RWY04 SLP142 T02280172

EXPIRED METARs :
  • 251756Z AUTO 34004KT 10SM OVC016 21/17 A2997 RMK AO2 CIG 015 RWY04 SLP152 T02140170 10216 20163 58010
  • 251736Z AUTO 04005KT 10SM OVC015 21/17 A2998 RMK AO2 CIG 014 RWY04 SLP155
  • 251656Z AUTO 03004KT 10SM OVC014 21/17 A2999 RMK AO2 CIG 013 RWY04 SLP159 T02060166

Expired Forecast.
KZHU FIR / North America



MET'MAP, your aeronautical weather chart ! - Copyright ORBIFLY December 2007 - Disclaimer

ORBIFLY MET'MAP TEAM :

Programming & Development : Alexandra Zaïnal
Concept & original design : Baudouin d'Aumeries
Assistance for programming : Marc-Olivier Méhu
Technical & hardware support : Manuel Goepfert

Contact : metmap@orbifly.com




SOURCES & CREDITS :

   NOAA       Earth
Advisory